EZY75DM EGKK-EPKK

Flight info

Callsign EZY75DM
Flight time 1h 54m
Altitude 37000
Route MIMFO Y312 DVR UL9 KONAN UL607 FERDI DCT MATUG DCT GUBAX DCT KOMIB L984 LONLI DCT ABERU L984 OKG DCT PADKA
Aircraft A320/M-SDE2E3FGHIJ1RWXYZ/LB1

Departure

Time 2026-04-16 05:57
Airport London Gatwick Airport (EGKK)

Arrival

Time 2026-04-16 07:51
Airport Kraków John Paul II International Airport (EPKK)
Time Latitude Longitude Altitude Speed Heading
2026-04-16 05:34 51.15662 -0.17700 205 ft 0 kts 168°
2026-04-16 05:50 51.15678 -0.17706 217 ft 4 kts 168°
2026-04-16 05:50 51.15704 -0.17714 213 ft 4 kts 160°
2026-04-16 05:50 51.15724 -0.17735 212 ft 4 kts 112°
2026-04-16 05:50 51.15726 -0.17775 212 ft 4 kts 78°
2026-04-16 05:51 51.15721 -0.17808 209 ft 4 kts 77°
2026-04-16 05:51 51.15719 -0.17821 214 ft 0 kts 77°
2026-04-16 05:53 51.15727 -0.17760 205 ft 7 kts 78°
2026-04-16 05:53 51.15739 -0.17678 212 ft 11 kts 77°
2026-04-16 05:54 51.15747 -0.17538 213 ft 12 kts 116°
2026-04-16 05:54 51.15670 -0.17485 208 ft 15 kts 167°
2026-04-16 05:54 51.15541 -0.17441 208 ft 22 kts 168°
2026-04-16 05:54 51.15381 -0.17385 209 ft 24 kts 168°
2026-04-16 05:55 51.15247 -0.17277 207 ft 22 kts 99°
2026-04-16 05:55 51.15279 -0.16999 208 ft 26 kts 77°
2026-04-16 05:55 51.15279 -0.16836 207 ft 10 kts 139°
2026-04-16 05:55 51.15218 -0.16807 216 ft 9 kts 169°
2026-04-16 05:56 51.15130 -0.16826 207 ft 20 kts 225°
2026-04-16 05:56 51.15057 -0.17275 216 ft 74 kts 257°
2026-04-16 05:56 51.14904 -0.18395 210 ft 132 kts 257°
2026-04-16 05:56 51.14682 -0.20045 335 ft 165 kts 255°
2026-04-16 05:57 51.14448 -0.21852 940 ft 169 kts 256°
2026-04-16 05:57 51.14192 -0.23710 1461 ft 180 kts 255°
2026-04-16 05:57 51.13901 -0.25780 1755 ft 204 kts 256°
2026-04-16 05:57 51.13700 -0.28034 2554 ft 208 kts 270°
2026-04-16 05:58 51.14149 -0.30231 3432 ft 217 kts 299°
2026-04-16 05:58 51.15309 -0.31881 3832 ft 233 kts 330°
2026-04-16 05:58 51.16935 -0.32263 3979 ft 246 kts
2026-04-16 05:58 51.18485 -0.31081 4008 ft 254 kts 43°
2026-04-16 05:59 51.19363 -0.28668 4012 ft 255 kts 78°
2026-04-16 05:59 51.19715 -0.25888 4011 ft 257 kts 81°
2026-04-16 05:59 51.20041 -0.23094 4010 ft 256 kts 82°
2026-04-16 05:59 51.20365 -0.20298 4012 ft 259 kts 81°
2026-04-16 06:00 51.20726 -0.17310 4008 ft 283 kts 80°
2026-04-16 06:00 51.21119 -0.14204 4011 ft 288 kts 80°
2026-04-16 06:00 51.21528 -0.11065 4110 ft 292 kts 79°
2026-04-16 06:00 51.21949 -0.07897 5015 ft 293 kts 79°
2026-04-16 06:01 51.22375 -0.04703 5884 ft 296 kts 79°
2026-04-16 06:01 51.22802 -0.01483 6732 ft 298 kts 79°
2026-04-16 06:01 51.23230 0.01777 7339 ft 302 kts 79°
2026-04-16 06:01 51.23660 0.05074 8103 ft 305 kts 79°
2026-04-16 06:02 51.24516 0.11730 9626 ft 312 kts 80°
2026-04-16 06:02 51.24953 0.15158 10129 ft 324 kts 80°
2026-04-16 06:02 51.25330 0.18828 10285 ft 346 kts 87°
2026-04-16 06:03 51.25297 0.22724 10674 ft 355 kts 99°
2026-04-16 06:03 51.24991 0.26669 11266 ft 361 kts 99°
2026-04-16 06:03 51.24683 0.30667 11885 ft 365 kts 99°
2026-04-16 06:03 51.24375 0.34719 12519 ft 370 kts 99°
2026-04-16 06:04 51.24062 0.38820 13177 ft 375 kts 99°
2026-04-16 06:04 51.23744 0.42974 13783 ft 380 kts 99°
2026-04-16 06:04 51.23423 0.47178 14340 ft 384 kts 99°
2026-04-16 06:04 51.23098 0.51427 14905 ft 388 kts 99°
2026-04-16 06:05 51.22768 0.55719 15473 ft 392 kts 99°
2026-04-16 06:05 51.22432 0.60057 16054 ft 397 kts 99°
2026-04-16 06:05 51.22091 0.64451 16643 ft 401 kts 99°
2026-04-16 06:05 51.21745 0.68887 17225 ft 405 kts 99°
2026-04-16 06:06 51.21392 0.73373 17802 ft 410 kts 99°
2026-04-16 06:06 51.21032 0.77901 18358 ft 414 kts 99°
2026-04-16 06:06 51.20669 0.82480 18869 ft 418 kts 99°
2026-04-16 06:06 51.20299 0.87108 19405 ft 422 kts 99°
2026-04-16 06:07 51.19924 0.91762 19931 ft 426 kts 99°
2026-04-16 06:07 51.19543 0.96464 20498 ft 429 kts 99°
2026-04-16 06:07 51.19155 1.01206 20978 ft 433 kts 99°
2026-04-16 06:07 51.18762 1.05986 21437 ft 437 kts 99°
2026-04-16 06:08 51.18368 1.10751 21890 ft 441 kts 99°
2026-04-16 06:08 51.17965 1.15614 22363 ft 445 kts 99°
2026-04-16 06:08 51.17557 1.20517 22808 ft 448 kts 99°
2026-04-16 06:08 51.17144 1.25459 23252 ft 452 kts 99°
2026-04-16 06:09 51.16723 1.30450 23682 ft 456 kts 99°
2026-04-16 06:09 51.16298 1.35471 24052 ft 459 kts 98°
2026-04-16 06:09 51.15931 1.40543 24415 ft 462 kts 96°
2026-04-16 06:09 51.15654 1.45656 24775 ft 465 kts 95°
2026-04-16 06:10 51.15433 1.50804 25139 ft 467 kts 94°
2026-04-16 06:10 51.15234 1.55983 25497 ft 470 kts 94°
2026-04-16 06:10 51.15031 1.61188 25830 ft 472 kts 94°
2026-04-16 06:10 51.14811 1.66419 26172 ft 474 kts 95°
2026-04-16 06:11 51.14567 1.71668 26496 ft 477 kts 95°
2026-04-16 06:11 51.14302 1.76942 26822 ft 479 kts 95°
2026-04-16 06:11 51.14022 1.82242 27147 ft 481 kts 95°
2026-04-16 06:11 51.13736 1.87562 27481 ft 484 kts 96°
2026-04-16 06:12 51.13446 1.92909 27791 ft 486 kts 95°
2026-04-16 06:12 51.13158 1.98274 28105 ft 488 kts 95°
2026-04-16 06:12 51.12873 2.03666 28408 ft 490 kts 95°
2026-04-16 06:12 51.12589 2.09090 28705 ft 492 kts 95°
2026-04-16 06:13 51.12305 2.14528 28984 ft 495 kts 95°
2026-04-16 06:13 51.12018 2.19996 29275 ft 497 kts 95°
2026-04-16 06:13 51.11723 2.25489 29548 ft 499 kts 95°
2026-04-16 06:13 51.11421 2.31001 29814 ft 501 kts 95°
2026-04-16 06:14 51.11112 2.36534 30072 ft 503 kts 95°
2026-04-16 06:14 51.10799 2.42091 30309 ft 505 kts 95°
2026-04-16 06:14 51.10482 2.47662 30524 ft 507 kts 95°
2026-04-16 06:14 51.10167 2.53185 30733 ft 508 kts 95°
2026-04-16 06:15 51.09840 2.58868 30939 ft 510 kts 95°
2026-04-16 06:15 51.09434 2.64480 31172 ft 511 kts 101°
2026-04-16 06:15 51.08613 2.69958 31458 ft 509 kts 108°
2026-04-16 06:15 51.07640 2.75283 31730 ft 509 kts 108°
2026-04-16 06:16 51.06659 2.80692 32005 ft 509 kts 107°
2026-04-16 06:16 51.05683 2.86093 32284 ft 508 kts 107°
2026-04-16 06:16 51.04706 2.91480 32598 ft 507 kts 107°
2026-04-16 06:16 51.03724 2.96863 32889 ft 507 kts 107°
2026-04-16 06:17 51.02740 3.02234 33159 ft 506 kts 107°
2026-04-16 06:17 51.01755 3.07605 33425 ft 506 kts 107°
2026-04-16 06:17 51.00768 3.12971 33691 ft 506 kts 108°
2026-04-16 06:17 50.99777 3.18327 33969 ft 506 kts 108°
2026-04-16 06:18 50.98783 3.23681 34228 ft 506 kts 108°
2026-04-16 06:18 50.97786 3.29030 34467 ft 505 kts 108°
2026-04-16 06:18 50.96789 3.34363 34723 ft 503 kts 108°
2026-04-16 06:18 50.95794 3.39676 34996 ft 502 kts 108°
2026-04-16 06:19 50.94801 3.44965 35244 ft 500 kts 108°
2026-04-16 06:19 50.93805 3.50245 35480 ft 499 kts 108°
2026-04-16 06:19 50.92810 3.55505 35713 ft 498 kts 108°
2026-04-16 06:19 50.91815 3.60756 35915 ft 497 kts 108°
2026-04-16 06:20 50.90828 3.65999 36129 ft 496 kts 107°
2026-04-16 06:20 50.89892 3.71257 36329 ft 496 kts 106°
2026-04-16 06:20 50.89007 3.76524 36529 ft 495 kts 105°
2026-04-16 06:20 50.88149 3.81793 36786 ft 492 kts 105°
2026-04-16 06:21 50.87296 3.87027 37020 ft 490 kts 105°
2026-04-16 06:21 50.86434 3.92238 37176 ft 489 kts 106°
2026-04-16 06:21 50.84675 4.02610 37205 ft 487 kts 106°
2026-04-16 06:22 50.82887 4.12936 37211 ft 487 kts 107°
2026-04-16 06:22 50.81085 4.23249 37215 ft 487 kts 107°
2026-04-16 06:23 50.79284 4.33567 37205 ft 486 kts 106°
2026-04-16 06:23 50.77478 4.43886 37228 ft 488 kts 107°
2026-04-16 06:24 50.75662 4.54209 37229 ft 488 kts 107°
2026-04-16 06:24 50.73842 4.64523 37226 ft 487 kts 107°
2026-04-16 06:25 50.72005 4.74812 37222 ft 487 kts 107°
2026-04-16 06:25 50.70586 4.82706 37224 ft 486 kts 107°
2026-04-16 06:26 50.69033 4.91300 37227 ft 486 kts 107°
2026-04-16 06:26 50.67172 5.01530 37229 ft 485 kts 107°
2026-04-16 06:27 50.65313 5.11762 37231 ft 486 kts 107°
2026-04-16 06:27 50.63452 5.21979 37237 ft 485 kts 107°
2026-04-16 06:28 50.61582 5.32167 37236 ft 484 kts 107°
2026-04-16 06:28 50.59695 5.42327 37234 ft 483 kts 108°
2026-04-16 06:29 50.57805 5.52474 37231 ft 483 kts 108°
2026-04-16 06:29 50.55912 5.62604 37223 ft 483 kts 108°
2026-04-16 06:30 50.54007 5.72726 37231 ft 482 kts 108°
2026-04-16 06:30 50.52099 5.82827 37223 ft 482 kts 108°
2026-04-16 06:31 50.50498 5.91216 37222 ft 482 kts 108°
2026-04-16 06:31 50.48564 6.01293 37196 ft 482 kts 108°
2026-04-16 06:32 50.46628 6.11352 37199 ft 481 kts 108°
2026-04-16 06:32 50.44693 6.21405 37201 ft 481 kts 108°
2026-04-16 06:33 50.42745 6.31440 37204 ft 481 kts 108°
2026-04-16 06:33 50.41309 6.41660 37204 ft 481 kts 97°
2026-04-16 06:34 50.40537 6.52010 37206 ft 481 kts 97°
2026-04-16 06:34 50.39736 6.62416 37208 ft 481 kts 97°
2026-04-16 06:35 50.38920 6.72823 37217 ft 481 kts 97°
2026-04-16 06:35 50.38097 6.83216 37222 ft 481 kts 97°
2026-04-16 06:36 50.37267 6.93608 37232 ft 481 kts 97°
2026-04-16 06:36 50.36436 7.03995 37230 ft 481 kts 98°
2026-04-16 06:37 50.35593 7.14384 37226 ft 481 kts 98°
2026-04-16 06:37 50.34735 7.24775 37225 ft 481 kts 98°
2026-04-16 06:38 50.33866 7.35154 37221 ft 481 kts 98°
2026-04-16 06:38 50.32993 7.45454 37217 ft 480 kts 98°
2026-04-16 06:39 50.32107 7.55811 37217 ft 480 kts 98°
2026-04-16 06:39 50.31219 7.66164 37223 ft 480 kts 98°
2026-04-16 06:40 50.30324 7.76514 37224 ft 480 kts 98°
2026-04-16 06:40 50.29407 7.86855 37219 ft 480 kts 99°
2026-04-16 06:41 50.28498 7.97201 37224 ft 480 kts 98°
2026-04-16 06:41 50.27643 8.07549 37231 ft 480 kts 98°
2026-04-16 06:42 50.26789 8.17902 37236 ft 480 kts 98°
2026-04-16 06:42 50.25907 8.28250 37239 ft 480 kts 98°
2026-04-16 06:43 50.25006 8.38589 37233 ft 480 kts 99°
2026-04-16 06:43 50.24100 8.48928 37236 ft 480 kts 99°
2026-04-16 06:44 50.23191 8.59273 37243 ft 481 kts 99°
2026-04-16 06:44 50.22276 8.69540 37243 ft 481 kts 99°
2026-04-16 06:45 50.21345 8.79878 37242 ft 481 kts 99°
2026-04-16 06:45 50.20406 8.90217 37234 ft 481 kts 99°
2026-04-16 06:46 50.19466 9.00554 37236 ft 481 kts 99°
2026-04-16 06:46 50.18501 9.10887 37233 ft 481 kts 99°
2026-04-16 06:47 50.17523 9.21217 37233 ft 481 kts 99°
2026-04-16 06:47 50.16551 9.31543 37231 ft 481 kts 99°
2026-04-16 06:48 50.15562 9.41868 37229 ft 481 kts 99°
2026-04-16 06:48 50.14565 9.52183 37229 ft 481 kts 99°
2026-04-16 06:49 50.13561 9.62501 37228 ft 481 kts 99°
2026-04-16 06:49 50.12550 9.72812 37225 ft 481 kts 100°
2026-04-16 06:50 50.11525 9.83108 37222 ft 481 kts 100°
2026-04-16 06:50 50.10491 9.93392 37228 ft 481 kts 100°
2026-04-16 06:51 50.09449 10.03673 37225 ft 480 kts 100°
2026-04-16 06:51 50.08403 10.13946 37219 ft 480 kts 100°
2026-04-16 06:52 50.07421 10.24228 37221 ft 480 kts 94°
2026-04-16 06:52 50.07401 10.34621 37230 ft 481 kts 90°
2026-04-16 06:53 50.07456 10.45033 37231 ft 481 kts 90°
2026-04-16 06:53 50.07492 10.55440 37225 ft 481 kts 90°
2026-04-16 06:54 50.07514 10.65770 37232 ft 480 kts 90°
2026-04-16 06:54 50.07522 10.76169 37235 ft 480 kts 90°
2026-04-16 06:55 50.07534 10.86568 37238 ft 480 kts 90°
2026-04-16 06:55 50.07533 10.96954 37239 ft 480 kts 91°
2026-04-16 06:56 50.07512 11.07335 37229 ft 479 kts 91°
2026-04-16 06:56 50.07487 11.17707 37226 ft 479 kts 91°
2026-04-16 06:57 50.07461 11.28066 37219 ft 479 kts 91°
2026-04-16 06:57 50.07425 11.38427 37216 ft 479 kts 91°
2026-04-16 06:58 50.07380 11.48790 37213 ft 479 kts 91°
2026-04-16 06:58 50.07322 11.59151 37229 ft 479 kts 91°
2026-04-16 06:59 50.07257 11.69512 37226 ft 479 kts 91°
2026-04-16 06:59 50.07183 11.79875 37224 ft 479 kts 91°
2026-04-16 07:00 50.07104 11.90248 37211 ft 479 kts 91°
2026-04-16 07:01 50.06960 12.05792 37212 ft 479 kts 92°
2026-04-16 07:01 50.06840 12.16161 37218 ft 479 kts 92°
2026-04-16 07:02 50.06716 12.26445 37210 ft 479 kts 92°
2026-04-16 07:02 50.06578 12.36801 37218 ft 478 kts 92°
2026-04-16 07:03 50.06473 12.47157 37214 ft 478 kts 91°
2026-04-16 07:03 50.06514 12.57505 37223 ft 478 kts 90°
2026-04-16 07:04 50.06577 12.67854 37225 ft 478 kts 90°
2026-04-16 07:04 50.06586 12.78203 37224 ft 478 kts 91°
2026-04-16 07:05 50.06567 12.88545 37207 ft 478 kts 91°
2026-04-16 07:05 50.06545 12.98881 37211 ft 477 kts 91°
2026-04-16 07:06 50.06526 13.09204 37217 ft 477 kts 91°
2026-04-16 07:06 50.06496 13.19533 37212 ft 477 kts 91°
2026-04-16 07:07 50.06453 13.29851 37214 ft 477 kts 91°
2026-04-16 07:07 50.06397 13.40168 37213 ft 477 kts 91°
2026-04-16 07:08 50.06330 13.50476 37212 ft 476 kts 91°
2026-04-16 07:08 50.06261 13.60789 37212 ft 476 kts 91°
2026-04-16 07:09 50.06184 13.71097 37204 ft 476 kts 91°
2026-04-16 07:09 50.06093 13.81405 37222 ft 477 kts 91°
2026-04-16 07:10 50.05994 13.91654 37214 ft 477 kts 92°
2026-04-16 07:10 50.05883 14.02052 37208 ft 477 kts 92°
2026-04-16 07:11 50.05758 14.12378 37212 ft 478 kts 92°
2026-04-16 07:11 50.05633 14.22644 37216 ft 478 kts 92°
2026-04-16 07:12 50.05500 14.32986 37210 ft 478 kts 92°
2026-04-16 07:12 50.05355 14.43332 37211 ft 478 kts 92°
2026-04-16 07:13 50.05201 14.53681 37216 ft 479 kts 92°
2026-04-16 07:13 50.05042 14.64035 37216 ft 479 kts 92°
2026-04-16 07:14 50.04876 14.74390 37212 ft 479 kts 92°
2026-04-16 07:14 50.04690 14.84748 37210 ft 479 kts 92°
2026-04-16 07:15 50.04493 14.95103 37204 ft 479 kts 92°
2026-04-16 07:15 50.04285 15.05460 37192 ft 479 kts 92°
2026-04-16 07:16 50.04076 15.15821 37195 ft 479 kts 93°
2026-04-16 07:16 50.03860 15.26169 37190 ft 479 kts 92°
2026-04-16 07:17 50.03634 15.36516 37192 ft 479 kts 92°
2026-04-16 07:17 50.03400 15.46797 37195 ft 479 kts 93°
2026-04-16 07:18 50.03157 15.57149 37199 ft 479 kts 93°
2026-04-16 07:18 50.02901 15.67508 37202 ft 479 kts 93°
2026-04-16 07:19 50.02629 15.77865 37206 ft 479 kts 93°
2026-04-16 07:19 50.02355 15.88207 37204 ft 479 kts 93°
2026-04-16 07:20 50.02072 15.98548 37201 ft 478 kts 93°
2026-04-16 07:20 50.01783 16.08881 37202 ft 478 kts 93°
2026-04-16 07:21 50.01483 16.19206 37196 ft 478 kts 92°
2026-04-16 07:21 50.01173 16.29518 37206 ft 477 kts 93°
2026-04-16 07:22 50.00903 16.38151 37206 ft 477 kts 93°
2026-04-16 07:22 50.00575 16.48439 37210 ft 477 kts 93°
2026-04-16 07:23 50.00242 16.58721 37208 ft 477 kts 93°
2026-04-16 07:23 49.99898 16.69007 37214 ft 476 kts 93°
2026-04-16 07:24 49.99542 16.79216 37212 ft 476 kts 93°
2026-04-16 07:24 49.99180 16.89474 37212 ft 475 kts 93°
2026-04-16 07:25 49.98808 16.99727 37214 ft 475 kts 93°
2026-04-16 07:25 49.98430 17.09973 37208 ft 475 kts 92°
2026-04-16 07:26 49.98046 17.20195 37215 ft 474 kts 92°
2026-04-16 07:26 49.97651 17.30404 37216 ft 473 kts 93°
2026-04-16 07:27 49.97248 17.40601 37215 ft 473 kts 93°
2026-04-16 07:27 49.96839 17.50795 37044 ft 473 kts 93°
2026-04-16 07:27 49.96628 17.55880 36652 ft 470 kts 92°
2026-04-16 07:28 49.96414 17.60933 36080 ft 468 kts 93°
2026-04-16 07:28 49.96201 17.65955 35535 ft 465 kts 93°
2026-04-16 07:28 49.95987 17.70953 34987 ft 463 kts 93°
2026-04-16 07:28 49.95770 17.75938 34432 ft 462 kts 93°
2026-04-16 07:29 49.95552 17.80904 33847 ft 460 kts 93°
2026-04-16 07:29 49.95335 17.85851 33292 ft 458 kts 93°
2026-04-16 07:29 49.95119 17.90765 32748 ft 455 kts 93°
2026-04-16 07:29 49.94902 17.95654 32208 ft 453 kts 93°
2026-04-16 07:30 49.94684 18.00520 31677 ft 451 kts 93°
2026-04-16 07:30 49.94465 18.05359 31144 ft 449 kts 93°
2026-04-16 07:30 49.94244 18.10179 30633 ft 446 kts 93°
2026-04-16 07:30 49.94026 18.14971 30082 ft 445 kts 93°
2026-04-16 07:31 49.93806 18.19741 29576 ft 441 kts 93°
2026-04-16 07:31 49.93584 18.24463 29086 ft 436 kts 93°
2026-04-16 07:31 49.93363 18.29125 28659 ft 431 kts 93°
2026-04-16 07:31 49.93179 18.33745 28219 ft 427 kts 92°
2026-04-16 07:32 49.93033 18.38323 27778 ft 423 kts 91°
2026-04-16 07:32 49.92909 18.42859 27340 ft 419 kts 91°
2026-04-16 07:32 49.92795 18.47364 26898 ft 416 kts 91°
2026-04-16 07:32 49.92677 18.51842 26449 ft 414 kts 91°
2026-04-16 07:33 49.92548 18.56232 26000 ft 412 kts 91°
2026-04-16 07:33 49.92407 18.60658 25541 ft 410 kts 91°
2026-04-16 07:33 49.92289 18.65058 25150 ft 405 kts 86°
2026-04-16 07:33 49.92550 18.69370 24952 ft 408 kts 81°
2026-04-16 07:34 49.92887 18.73858 24515 ft 425 kts 81°
2026-04-16 07:34 49.93228 18.78424 23976 ft 426 kts 81°
2026-04-16 07:34 49.93567 18.82991 23382 ft 426 kts 82°
2026-04-16 07:34 49.93901 18.87543 22837 ft 423 kts 82°
2026-04-16 07:35 49.94231 18.92065 22323 ft 420 kts 82°
2026-04-16 07:35 49.94560 18.96558 21807 ft 418 kts 82°
2026-04-16 07:35 49.94887 19.01029 21293 ft 416 kts 82°
2026-04-16 07:35 49.95214 19.05474 20856 ft 412 kts 82°
2026-04-16 07:36 49.95535 19.09866 20327 ft 410 kts 82°
2026-04-16 07:36 49.95852 19.14252 19972 ft 405 kts 82°
2026-04-16 07:36 49.96160 19.18562 19622 ft 399 kts 82°
2026-04-16 07:36 49.96463 19.22822 19222 ft 395 kts 82°
2026-04-16 07:37 49.96764 19.27044 18836 ft 391 kts 82°
2026-04-16 07:37 49.97061 19.31225 18419 ft 388 kts 82°
2026-04-16 07:37 49.97354 19.35377 17949 ft 385 kts 82°
2026-04-16 07:37 49.97645 19.39503 17494 ft 382 kts 82°
2026-04-16 07:38 49.97929 19.43593 17053 ft 380 kts 82°
2026-04-16 07:38 49.98207 19.47654 16618 ft 377 kts 82°
2026-04-16 07:38 49.98483 19.51690 16195 ft 374 kts 82°
2026-04-16 07:38 49.98759 19.55689 15778 ft 371 kts 82°
2026-04-16 07:39 49.99030 19.59651 15385 ft 363 kts 82°
2026-04-16 07:39 49.99290 19.63506 14792 ft 355 kts 82°
2026-04-16 07:39 49.99542 19.67283 14191 ft 348 kts 82°
2026-04-16 07:39 49.99790 19.70993 13565 ft 342 kts 82°
2026-04-16 07:40 50.00035 19.74641 12901 ft 336 kts 82°
2026-04-16 07:40 50.00275 19.78228 12257 ft 332 kts 82°
2026-04-16 07:40 50.00515 19.81812 11848 ft 331 kts 82°
2026-04-16 07:40 50.00751 19.85362 11480 ft 329 kts 83°
2026-04-16 07:41 50.00982 19.88892 11112 ft 327 kts 83°
2026-04-16 07:41 50.01206 19.92375 10857 ft 321 kts 83°
2026-04-16 07:41 50.01422 19.95726 10612 ft 309 kts 83°
2026-04-16 07:41 50.01635 19.98958 10367 ft 292 kts 81°
2026-04-16 07:42 50.02023 20.02007 10131 ft 284 kts 76°
2026-04-16 07:42 50.02427 20.04958 10011 ft 275 kts 76°
2026-04-16 07:42 50.02816 20.07838 9818 ft 271 kts 76°
2026-04-16 07:42 50.03200 20.10691 9499 ft 269 kts 76°
2026-04-16 07:43 50.03583 20.13533 9148 ft 268 kts 77°
2026-04-16 07:43 50.03966 20.16363 8766 ft 268 kts 77°
2026-04-16 07:43 50.04352 20.19194 8442 ft 265 kts 75°
2026-04-16 07:43 50.05137 20.21735 8033 ft 260 kts 44°
2026-04-16 07:44 50.06575 20.23290 7653 ft 251 kts 15°
2026-04-16 07:44 50.08270 20.23566 7268 ft 244 kts 348°
2026-04-16 07:44 50.09926 20.23045 6835 ft 245 kts 345°
2026-04-16 07:44 50.11534 20.22326 6613 ft 234 kts 328°
2026-04-16 07:45 50.12689 20.20698 6489 ft 219 kts 300°
2026-04-16 07:45 50.13162 20.18526 6300 ft 210 kts 274°
2026-04-16 07:45 50.12992 20.16281 5788 ft 209 kts 258°
2026-04-16 07:45 50.12681 20.14065 5234 ft 209 kts 259°
2026-04-16 07:46 50.12379 20.11892 4859 ft 201 kts 259°
2026-04-16 07:46 50.12092 20.09825 4567 ft 190 kts 259°
2026-04-16 07:46 50.11819 20.07842 4305 ft 186 kts 259°
2026-04-16 07:46 50.11548 20.05871 4065 ft 186 kts 259°
2026-04-16 07:47 50.11280 20.03910 3833 ft 185 kts 259°
2026-04-16 07:47 50.11011 20.01948 3598 ft 185 kts 259°
2026-04-16 07:47 50.10745 20.00009 3353 ft 178 kts 259°
2026-04-16 07:47 50.10492 19.98177 3133 ft 169 kts 259°
2026-04-16 07:48 50.10257 19.96478 2935 ft 153 kts 259°
2026-04-16 07:48 50.10040 19.94895 2736 ft 147 kts 259°
2026-04-16 07:48 50.09828 19.93355 2539 ft 144 kts 259°
2026-04-16 07:48 50.09618 19.91831 2350 ft 143 kts 258°
2026-04-16 07:49 50.09409 19.90318 2152 ft 142 kts 258°
2026-04-16 07:49 50.09201 19.88812 1962 ft 142 kts 258°
2026-04-16 07:49 50.08994 19.87308 1774 ft 142 kts 257°
2026-04-16 07:49 50.08791 19.85830 1590 ft 141 kts 257°
2026-04-16 07:50 50.08586 19.84346 1402 ft 140 kts 257°
2026-04-16 07:50 50.08376 19.82849 1184 ft 138 kts 256°
2026-04-16 07:50 50.08172 19.81384 1019 ft 139 kts 257°
2026-04-16 07:50 50.07973 19.79917 839 ft 138 kts 257°
2026-04-16 07:51 50.07786 19.78568 796 ft 110 kts 257°
2026-04-16 07:51 50.07682 19.77829 793 ft 47 kts 258°
2026-04-16 07:51 50.07623 19.77398 796 ft 32 kts 258°
2026-04-16 07:51 50.07577 19.77074 801 ft 30 kts 257°
2026-04-16 07:52 50.07527 19.76866 802 ft 17 kts 212°
2026-04-16 07:52 50.07400 19.76873 800 ft 20 kts 169°
2026-04-16 07:52 50.07314 19.76994 800 ft 19 kts 85°
2026-04-16 07:52 50.07342 19.77206 800 ft 21 kts 77°
2026-04-16 07:53 50.07374 19.77433 800 ft 22 kts 77°
2026-04-16 07:53 50.07408 19.77678 800 ft 24 kts 78°
2026-04-16 07:53 50.07444 19.77937 800 ft 25 kts 77°
2026-04-16 07:53 50.07482 19.78212 800 ft 27 kts 77°
2026-04-16 07:54 50.07522 19.78501 800 ft 28 kts 78°
2026-04-16 07:54 50.07563 19.78791 800 ft 26 kts 78°
2026-04-16 07:54 50.07602 19.79070 800 ft 27 kts 78°
2026-04-16 07:54 50.07642 19.79361 800 ft 28 kts 78°
2026-04-16 07:55 50.07671 19.79635 800 ft 20 kts 107°
2026-04-16 07:55 50.07599 19.79826 800 ft 21 kts 123°
2026-04-16 07:55 50.07481 19.79944 800 ft 20 kts 167°
2026-04-16 07:55 50.07402 19.80055 800 ft 16 kts 81°
2026-04-16 07:56 50.07397 19.80184 800 ft 11 kts 145°
2026-04-16 07:56 50.07348 19.80204 800 ft 2 kts 167°
2026-04-16 07:56 50.07339 19.80207 800 ft 0 kts 167°